TimePST,TemperatureF,Dew PointF,Humidity,Sea Level PressureIn,VisibilityMPH,Wind Direction,Wind SpeedMPH,Gust SpeedMPH,PrecipitationIn,Events,Conditions,WindDirDegrees,DateUTC
12:54 AM,-9999,-9999,N/A,30.16,-9999.0,NE,10.4,-,N/A,,Clear,50,2013-02-16 08:54:00
1:54 AM,-9999,-9999,N/A,30.15,-9999.0,ENE,11.5,-,N/A,,Clear,60,2013-02-16 09:54:00
2:54 AM,-9999,-9999,N/A,30.13,-9999.0,ENE,11.5,-,N/A,,Clear,60,2013-02-16 10:54:00
3:54 AM,-9999,-9999,N/A,30.13,-9999.0,NE,5.8,-,N/A,,Clear,40,2013-02-16 11:54:00
4:54 AM,-9999,-9999,N/A,30.13,-9999.0,NE,9.2,-,N/A,,Clear,50,2013-02-16 12:54:00
5:54 AM,62.8,23.9,23,30.13,7.0,ENE,13.8,-,N/A,,Mostly Cloudy,70,2013-02-16 13:54:00
6:54 AM,69.3,25.2,19,30.14,7.0,NE,10.4,-,N/A,,Mostly Cloudy,50,2013-02-16 14:54:00
7:54 AM,69.3,23.4,18,30.14,7.0,NE,9.2,-,N/A,,Mostly Cloudy,50,2013-02-16 15:54:00
8:54 AM,71.1,23.4,17,30.16,7.0,ENE,12.7,-,N/A,,Scattered Clouds,70,2013-02-16 16:54:00
9:54 AM,73.0,23.2,15,30.16,7.0,South,8.1,-,N/A,,Scattered Clouds,180,2013-02-16 17:54:00
10:54 AM,73.0,28.0,19,30.15,7.0,SSW,8.1,-,N/A,,Scattered Clouds,200,2013-02-16 18:54:00
11:54 AM,-9999,-9999,N/A,30.13,-9999.0,SW,8.1,-,N/A,,Clear,230,2013-02-16 19:54:00
12:54 PM,-9999,-9999,N/A,30.09,-9999.0,SW,8.1,-,N/A,,Clear,230,2013-02-16 20:54:00
1:54 PM,-9999,-9999,N/A,30.07,-9999.0,WSW,6.9,-,N/A,,Clear,250,2013-02-16 21:54:00
2:54 PM,-9999,-9999,N/A,30.05,-9999.0,WSW,5.8,-,N/A,,Clear,240,2013-02-16 22:54:00
3:54 PM,-9999,-9999,N/A,30.04,-9999.0,WSW,3.5,-,N/A,,Clear,250,2013-02-16 23:54:00
4:54 PM,-9999,-9999,N/A,30.02,-9999.0,Calm,Calm,-,N/A,,Clear,0,2013-02-17 00:54:00
5:54 PM,-9999,-9999,N/A,30.02,-9999.0,WNW,4.6,-,N/A,,Clear,300,2013-02-17 01:54:00
6:54 PM,-9999,-9999,N/A,30.02,-9999.0,NE,4.6,-,N/A,,Clear,40,2013-02-17 02:54:00
7:54 PM,-9999,-9999,N/A,30.02,-9999.0,WNW,8.1,-,N/A,,Clear,290,2013-02-17 03:54:00
8:54 PM,-9999,-9999,N/A,30.01,-9999.0,Calm,Calm,-,N/A,,Clear,0,2013-02-17 04:54:00
9:54 PM,-9999,-9999,N/A,30.02,-9999.0,NW,4.6,-,N/A,,Clear,320,2013-02-17 05:54:00
10:54 PM,-9999,-9999,N/A,30.00,-9999.0,Calm,Calm,-,N/A,,Clear,0,2013-02-17 06:54:00
11:54 PM,-9999,-9999,N/A,30.00,-9999.0,NNW,5.8,-,N/A,,Clear,330,2013-02-17 07:54:00